Regional Weather Roundup
Issued by NWS

Home | Current Version | Previous Version | Graphics & Text | Print | Product List | Glossary On
Versions: 1 2 3 4 5 6 7 8 9 10 11 12 13 14 15 16 17 18 19 20 21 22 23 24 25 26 27 28 29 30 31
000
ASUS45 KGTF 180110
RWRMT
MONTANA HOURLY WEATHER ROUNDUP
NATIONAL WEATHER SERVICE GREAT FALLS MT
700 PM MDT FRI APR 17 2015

NOTE: "FAIR" INDICATES FEW OR NO CLOUDS BELOW 12000 FEET WITH NO
SIGNIFICANT WEATHER AND/OR OBSTRUCTIONS TO VISIBILITY.

MTZ001>007-043-180200-
WEST OF THE DIVIDE

CITY           SKY/WX    TMP DP  RH WIND       PRES   REMARKS
KALISPELL      CLEAR     66  33  29 SE9       29.98F
MISSOULA       SUNNY     69  31  24 N9        30.00F
BUTTE          SUNNY     63  21  20 VRB3      30.04F
DEER LODGE       N/A     64  27  24 NW12      30.06F
EUREKA           N/A     70  30  23 W9        29.98S
HAMILTON         N/A     70  27  19 W12       30.00F
LIBBY            N/A     70  28  21 S7        30.01S
$$

MTZ008-052>055-180200-
SOUTHWEST MONTANA

CITY           SKY/WX    TMP DP  RH WIND       PRES   REMARKS
BOZEMAN        SUNNY     62  30  29 E5        30.03F
DILLON         SUNNY     64  16  15 NE5       30.02F
$$

MTZ009-010-012-014-046-048-049-054-180200-
EAST SLOPES AND CENTRAL MONTANA

CITY           SKY/WX    TMP DP  RH WIND       PRES   REMARKS
CUT BANK       FAIR      64  25  22 SW18      29.96F
GREAT FALLS    SUNNY     67  26  21 S8        29.96F
MALMSTROM AFB  SUNNY     66  33  29 E9        29.96F
HELENA         SUNNY     67  20  16 E13       29.98F
$$

MTZ011-013-016-021-045-047-050-051-180200-
NORTH CENTRAL MONTANA

CITY           SKY/WX    TMP DP  RH WIND       PRES   REMARKS
HAVRE          FAIR      68  32  26 S12       29.95F
LEWISTOWN      SUNNY     63  26  24 E14       30.00F
FORT BENTON      N/A     68  34  28 E7        29.96F
$$

MTZ017>020-022>042-056>058-061-062-180200-
EASTERN PLAINS

CITY           SKY/WX    TMP DP  RH WIND       PRES   REMARKS
BAKER          PTCLDY    62  29  28 SE12      30.09F
BILLINGS       CLEAR     63  30  28 E7        30.04F
GLASGOW        CLEAR     67  25  20 S12       30.01F
JORDAN           N/A     68  20  16 E6        30.01F
LIVINGSTON     SUNNY     64  12  13 E7        30.02F
MILES CITY     CLEAR     66  29  24 S9        30.04S
SIDNEY         CLEAR     70  25  18 CALM      30.06S
WOLF POINT     CLEAR     68  30  24 SE5       30.02F
BIG TIMBER       N/A     61  21  21 E7        30.04S
FORSYTH          N/A     66  30  26 SE5       30.03F
PLENTYWOOD       N/A     63  25  23 E9        30.07S
POPLAR           N/A     70  27  19 E6        30.04S
$$

REGIONAL REPORTS...DAKOTAS

CITY           SKY/WX    TMP DP  RH WIND       PRES   REMARKS
WILLISTON      CLEAR     66  26  22 NE10      30.07S
MINOT          CLEAR     59  24  26 N8        30.10R
DICKINSON      PTCLDY    62  22  21 SE7       30.06S
BEACH          FAIR      63  25  23 SE7       30.08S
CROSBY         FAIR      59  25  27 NE10      30.09S
WATFORD CITY   FAIR      66  25  20 E10       30.05S
BISMARCK       MOCLDY    68  29  23 SE5       30.06S
GRAND FORKS    CLEAR     59  18  20 N13       30.07R
FARGO          PTCLDY    68  27  21 N22G33    30.02R
BUFFALO SD       N/A     60  32  34 E8        30.03F
RAPID CITY     CLOUDY    52  39  61 SW8       30.11F
$$

REGIONAL REPORTS...WYOMING/IDAHO/WASHINGTON

CITY           SKY/WX    TMP DP  RH WIND       PRES   REMARKS
GILLETTE       CLOUDY    52  39  61 S17       30.09S
SHERIDAN       MOCLDY    59  32  36 SE8       30.07F
BUFFALO WY     MOCLDY    56  29  35 E6        30.11S
CODY           SUNNY     57  27  30 CALM      30.07F
YELLOWSTONE LA   N/A     50  11  20 CALM      30.13S
IDAHO FALLS    SUNNY     67  10  11 W7        30.00F
SALMON         SUNNY     70  21  16 W5        29.97S
BOISE          SUNNY     71  24  17 NW10      30.01F
SPOKANE        MOSUNNY   68  33  27 W14       30.06F
$$

REGIONAL REPORTS...ALBERTA

CITY           SKY/WX    TMP DP  RH WIND       PRES   REMARKS
EDMONTON       PTSUNNY   45  41  87 N13       29.92R
CALGARY        PTSUNNY   63  19  19 W20G28    29.91S
LETHBRIDGE     MOSUNNY   68  28  22 W29G40    29.90S
MEDICINE HAT   PTSUNNY   70  30  23 S13       29.87F
$$

REGIONAL REPORTS...SASKATCHEWAN

CITY           SKY/WX    TMP DP  RH WIND       PRES   REMARKS
SWIFT CURRENT  CLEAR     64  27  24 SE13G24   29.95F
REGINA         CLEAR     59  25  27 SE9       30.08F
SASKATOON      PTCLDY    59  21  23 SE15      30.02F
$$



USA.gov is the U.S. government's official web portal to all federal, state and local government web resources and services.